This is the latest recevied weather packets stored in our database for station/object YO6KXQ-11. If no packets are shown the sender has not sent any weather packets the latest 1 day(s).
| Time | Temp. | Humidity | Pressure | Rain* | Wind** | Luminosity | Snow |
|---|---|---|---|---|---|---|---|
| 1777824734 | 14.44° C | 43% | 1022.7 hPa | - | - | - | - |
| 1777823834 | 14.44° C | 44% | 1022.8 hPa | - | - | - | - |
| 1777822934 | 14.44° C | 44% | 1023 hPa | - | - | - | - |
| 1777822034 | 14.44° C | 44% | 1023.1 hPa | - | - | - | - |
| 1777821134 | 14.44° C | 44% | 1023.1 hPa | - | - | - | - |
| 1777820234 | 14.44° C | 43% | 1023.2 hPa | - | - | - | - |
| 1777819334 | 14.44° C | 41% | 1023.3 hPa | - | - | - | - |
| 1777818433 | 13.89° C | 42% | 1023.6 hPa | - | - | - | - |
| 1777817533 | 13.89° C | 40% | 1023.7 hPa | - | - | - | - |
| 1777816633 | 13.89° C | 41% | 1024 hPa | - | - | - | - |
| 1777815733 | 13.89° C | 38% | 1024.1 hPa | - | - | - | - |
| 1777814833 | 13.33° C | 40% | 1024.4 hPa | - | - | - | - |
| 1777813932 | 13.33° C | 40% | 1024.6 hPa | - | - | - | - |
| 1777813031 | 13.33° C | 42% | 1024.8 hPa | - | - | - | - |
| 1777812131 | 13.33° C | 40% | 1024.9 hPa | - | - | - | - |
| 1777811231 | 13.33° C | 39% | 1025 hPa | - | - | - | - |
| 1777810331 | 13.33° C | 35% | 1025.1 hPa | - | - | - | - |
| 1777809431 | 12.78° C | 39% | 1025.4 hPa | - | - | - | - |
| 1777808531 | 12.78° C | 38% | 1025.6 hPa | - | - | - | - |
| 1777807631 | 12.78° C | 37% | 1025.7 hPa | - | - | - | - |
| 1777806730 | 12.22° C | 38% | 1025.8 hPa | - | - | - | - |
| 1777805830 | 12.78° C | 41% | 1026.1 hPa | - | - | - | - |
| 1777804930 | 12.78° C | 42% | 1026.2 hPa | - | - | - | - |
| 1777804030 | 12.78° C | 41% | 1026.5 hPa | - | - | - | - |
| 1777803130 | 12.22° C | 43% | 1026.5 hPa | - | - | - | - |
* Rain since midnight (hover to see other rain measurements)
** Current wind speed in m/s (hover to see current wind gust speed)